CRYOSAT 2

Last updated on Thu Oct 30 2025 00:03:36 GMT+0000 (Coordinated Universal Time)

1 36508U 10013A 25302.47520918 .00000257 00000+0 63064-4 0 9991 2 36508 92.0251 221.4550 0002510 82.1082 278.0410 14.51910447824609
UTC large
Height (km)
Speed (km/s)
/
Latitude / Longitude
Inclination (degrees)
Orbital Period (minutes)
Azimuth
Elevation
Range (km)
Doppler Factor

Next 0 passes for location: London (51.5072 / 0.1276)

Sorry there are no passes over London.